Wind_Speed
56 57 58 58 58 59 59 59 58 57 58 58 59 59 59 58 58 59 59 58 56 56 56 55 53 50 49 49 49 49 49 49 48 48 47 46 45 43 42 43 44 43 41 39 37 36 36 36 36 36 35 35 36 36 36 36 36 37 38 39 41 42 43 44 45 45 45 44 42 42 41 41 42 43 44 45 46 47 48 49 50 50 49 49 49 48
54 54 55 55 55 56 56 55 54 55 56 57 57 57 56 55 54 55 55 54 53 54 54 52 50 48 47 48 50 49 48 47 47 46 45 44 43 42 42 43 43 41 40 39 38 37 36 37 37 36 35 34 35 36 37 37 36 36 37 38 40 41 42 43 43 42 42 40 39 39 40 42 43 45 47 48 48 49 49 49 49 49 49 49 48 47
50 51 51 51 51 52 52 51 51 53 54 54 54 53 52 52 51 51 52 52 51 51 51 49 48 46 46 48 50 49 48 46 46 46 45 43 42 43 43 43 43 42 41 40 39 38 37 37 37 37 35 34 34 36 37 37 37 37 38 39 39 40 40 41 41 41 40 40 40 40 42 44 46 47 48 48 48 48 48 49 49 49 49 48 47 45
47 47 47 47 47 48 48 48 49 50 51 51 51 49 49 49 49 49 50 50 48 49 49 48 47 47 46 48 50 50 48 47 46 45 43 42 42 42 41 42 43 43 42 42 40 39 38 38 38 38 37 35 34 35 36 37 38 38 39 40 39 39 38 39 40 41 42 42 42 43 44 46 47 48 48 48 48 48 47 47 47 47 46 46 45 43
44 44 44 44 45 46 46 46 47 48 48 48 48 48 47 47 47 48 48 47 46 47 48 48 48 49 49 50 51 50 49 47 45 43 41 41 42 41 40 42 43 44 43 43 42 42 41 40 41 40 38 36 35 35 36 37 38 39 40 41 41 41 40 40 41 42 42 43 43 44 44 45 46 47 47 48 48 47 47 46 46 45 44 43 41 39
43 42 42 43 44 44 45 45 46 46 47 48 48 47 46 46 46 47 46 45 46 48 48 48 48 50 50 50 51 49 47 45 43 41 40 41 42 42 42 42 43 44 44 43 43 43 43 43 42 41 39 38 37 37 37 38 38 39 41 42 43 43 43 44 45 45 45 44 44 43 43 43 44 45 46 47 47 47 46 46 45 43 41 39 38 36
42 42 42 43 44 45 45 45 46 46 46 47 48 47 45 45 46 46 46 46 47 48 48 48 48 50 50 51 51 48 45 43 41 40 40 41 43 43 42 42 42 44 44 43 44 44 45 44 43 41 39 39 39 39 39 39 38 39 41 43 44 45 46 47 48 49 49 48 47 46 45 44 45 46 47 46 46 46 45 44 43 42 40 37 35 33
43 42 43 44 44 45 46 46 46 46 45 47 49 47 45 45 46 46 46 46 47 47 47 47 48 49 50 51 50 45 42 41 40 40 40 41 43 42 42 41 42 43 43 43 44 45 46 45 43 41 40 39 40 40 41 41 40 39 41 42 44 46 47 48 50 51 52 52 51 50 49 48 48 49 49 47 45 44 43 43 42 41 38 34 31 29
43 44 45 44 44 46 46 46 46 45 46 48 49 47 45 44 45 46 47 47 47 46 47 46 47 48 49 50 49 45 42 41 41 41 40 41 42 41 41 41 41 42 42 42 43 45 45 44 42 41 40 39 39 40 41 42 41 41 41 43 44 45 47 49 51 52 53 53 53 52 52 51 51 50 49 47 44 42 42 41 40 38 35 32 29 28
45 45 45 44 45 46 47 46 45 45 47 48 47 47 46 45 45 47 47 47 46 46 46 46 46 47 48 49 50 46 42 41 40 40 40 41 41 41 40 41 40 40 40 40 42 44 43 41 41 39 38 37 37 37 38 40 41 41 42 43 44 46 47 48 49 51 52 53 53 52 52 52 51 50 48 46 44 42 42 41 39 38 35 32 31 30
48 46 44 45 46 47 48 47 45 46 48 47 46 47 48 46 47 48 47 47 46 46 46 45 45 46 47 49 51 49 43 40 40 40 40 41 42 41 40 40 40 40 39 40 42 42 40 39 39 38 36 35 35 35 36 36 37 38 40 42 44 46 47 47 48 49 50 52 52 52 52 52 51 50 48 46 45 43 43 42 41 39 38 36 35 34
49 46 45 46 47 48 48 47 45 46 48 47 47 47 48 47 47 47 46 45 45 45 45 45 44 45 46 48 51 50 44 40 39 40 40 41 42 42 40 40 39 39 38 39 40 40 38 37 38 37 36 35 34 35 35 35 35 34 36 38 40 43 44 45 46 48 49 51 52 51 51 51 50 49 48 47 45 44 44 43 43 42 42 41 39 39
48 46 46 46 47 47 47 46 46 47 48 48 47 47 48 47 46 45 45 44 44 44 44 44 44 45 46 47 50 51 45 40 39 40 40 41 41 41 40 39 39 38 38 39 39 39 38 38 38 37 37 36 36 37 37 36 35 34 34 35 37 38 40 41 42 44 46 48 49 49 46 45 44 42 42 43 43 43 44 44 44 44 44 44 44 43
48 47 46 46 46 46 46 47 47 47 47 46 46 46 46 46 45 45 44 44 45 44 43 43 44 45 46 46 47 50 46 40 38 39 40 40 41 41 40 39 39 38 38 39 39 38 38 38 38 37 37 37 38 38 38 37 36 36 36 35 35 36 37 38 38 39 42 44 46 46 43 41 39 38 37 37 37 39 42 44 45 46 46 46 46 46
48 47 46 45 45 45 46 47 47 46 45 46 46 46 45 45 45 45 45 45 44 43 42 43 44 45 45 44 44 47 46 40 37 38 39 39 41 40 40 39 39 38 38 39 38 38 39 39 39 38 37 37 39 39 39 38 38 37 37 37 36 36 36 36 36 36 39 42 43 44 44 43 42 42 40 38 36 35 37 40 43 45 47 47 47 47
47 48 47 45 45 46 46 47 46 45 46 47 46 46 45 45 45 46 45 45 44 43 43 43 45 45 45 44 42 43 44 41 37 37 38 39 39 39 39 39 38 38 37 38 37 38 39 39 40 38 38 39 40 40 40 40 39 39 39 38 39 38 35 35 34 34 39 43 43 43 43 45 46 46 45 43 41 38 36 37 39 41 44 46 47 48
46 47 45 45 46 45 46 47 47 47 47 47 46 46 46 46 47 47 46 45 44 44 44 44 45 45 44 42 40 39 40 40 39 39 38 39 39 39 39 39 38 38 37 37 38 39 40 40 39 38 39 42 42 42 42 42 42 42 41 41 41 39 35 34 33 35 41 45 46 45 45 46 49 49 49 48 47 44 41 39 39 39 41 43 44 46
44 45 44 45 46 45 46 49 49 47 47 47 47 47 48 48 48 46 46 45 45 45 46 45 45 44 42 40 39 37 39 40 41 40 39 39 39 39 40 40 40 40 40 41 42 43 43 43 42 42 43 44 45 45 45 44 44 45 44 44 44 41 35 31 31 36 41 41 43 47 48 48 51 52 52 52 50 48 46 43 42 41 41 42 43 44
42 44 44 45 47 46 48 51 50 48 47 49 49 48 48 49 48 46 46 46 45 47 48 46 45 42 41 41 40 38 39 41 42 42 41 41 41 41 42 42 42 43 44 45 45 45 45 46 46 46 46 46 46 46 46 46 47 47 47 46 46 43 35 30 33 41 42 40 42 47 50 50 51 51 52 52 52 51 48 47 46 44 44 45 46 46
42 44 45 47 48 48 49 51 52 50 50 51 50 48 49 50 49 48 47 47 48 49 49 47 44 42 42 42 41 40 40 41 43 43 43 44 43 43 44 44 45 46 47 48 48 47 48 48 48 48 48 48 47 47 47 48 48 48 48 48 47 45 39 34 36 42 42 41 41 44 49 51 50 50 51 50 52 52 50 50 50 49 49 49 49 50
44 47 49 50 52 52 52 53 54 53 52 52 51 50 50 51 50 48 48 48 49 50 50 48 45 44 44 44 43 42 41 42 44 45 45 45 45 46 46 47 47 49 51 51 51 50 50 51 51 51 50 50 50 49 49 49 50 49 49 48 47 46 43 39 38 42 43 43 44 46 51 53 51 50 51 51 52 53 51 50 50 50 50 51 52 52
47 50 53 54 54 55 54 54 55 56 54 52 53 53 51 51 49 48 48 49 50 51 51 49 47 46 47 46 45 45 44 44 45 46 47 47 48 49 49 49 50 51 53 53 53 54 54 54 53 53 52 52 52 52 52 51 51 51 50 49 47 45 44 44 44 47 48 48 51 54 55 56 55 53 52 52 54 55 53 51 51 52 54 54 54 54
50 52 55 57 57 57 56 55 56 58 56 54 54 53 51 50 49 48 49 50 50 52 53 51 49 48 49 48 48 47 47 47 47 49 49 49 51 52 52 52 52 53 55 56 56 56 57 56 55 54 54 54 54 54 53 53 52 51 49 48 46 44 44 44 47 49 50 50 52 54 55 56 55 52 51 53 54 55 55 54 55 56 57 57 56 55
51 53 55 58 59 58 57 56 56 57 57 56 55 54 52 52 50 50 51 52 52 53 54 53 51 50 51 51 51 50 50 50 50 51 51 52 53 53 53 53 54 54 56 57 58 58 58 57 56 55 55 55 55 55 54 53 52 50 48 46 45 44 43 43 44 46 48 48 50 51 53 53 53 52 52 53 54 55 55 55 55 56 56 56 56 55
52 53 55 58 60 58 57 56 56 56 57 57 56 55 55 54 53 53 54 54 54 55 55 55 54 52 53 53 53 52 52 53 53 53 53 54 55 55 55 55 55 56 56 57 58 58 58 58 57 56 56 56 55 54 54 53 51 49 47 45 44 44 44 43 43 43 44 46 48 50 51 51 52 52 53 53 54 54 54 54 54 55 54 54 53 53
54 54 56 58 61 60 58 57 57 59 60 59 57 56 56 56 55 56 56 57 58 58 58 57 56 55 54 55 55 55 54 55 55 55 56 56 57 57 57 57 57 57 57 58 59 59 59 59 58 58 57 56 55 53 52 52 50 49 48 46 45 45 45 44 44 43 43 45 47 48 49 49 50 50 51 52 52 53 54 54 53 52 50 49 48 48
57 58 59 61 63 64 63 60 60 63 64 63 62 59 58 58 59 59 60 60 61 62 62 61 59 58 57 57 57 57 58 58 58 58 58 59 59 60 60 60 60 60 60 60 60 60 60 60 60 58 57 56 54 53 51 50 50 49 49 47 46 46 46 46 45 45 45 46 47 47 48 48 48 49 50 51 52 52 52 50 49 46 42 42 44 45
57 59 60 61 64 65 66 64 64 65 66 67 67 65 63 62 62 62 62 63 64 65 65 64 62 62 61 60 60 61 61 61 61 61 61 61 61 62 62 62 62 62 62 62 61 61 60 60 59 58 56 55 54 53 52 50 50 49 49 48 47 48 48 47 47 47 47 48 48 49 49 48 48 48 48 49 50 48 44 43 44 42 39 39 41 42
53 54 55 58 61 63 64 65 65 65 66 67 68 69 67 65 64 64 64 65 65 67 68 67 65 65 64 63 62 62 62 62 62 62 62 62 62 62 62 62 62 62 62 61 61 60 59 59 58 57 56 55 55 54 53 52 51 51 50 49 49 49 49 48 48 49 49 50 50 50 50 49 49 47 45 45 46 43 40 39 41 42 41 41 41 42
51 52 52 54 56 58 60 61 61 61 63 65 66 68 67 66 65 65 66 66 67 68 68 67 66 66 65 64 64 63 62 62 62 62 63 63 62 62 62 62 62 62 62 61 61 60 60 59 58 58 58 57 57 56 55 55 54 53 53 52 50 50 50 50 49 50 50 51 52 52 51 50 50 48 45 45 46 46 45 43 43 44 44 44 44 43
52 52 52 52 53 54 55 56 56 57 60 62 63 64 64 64 63 63 64 66 67 68 68 67 67 66 65 64 64 63 63 63 63 63 62 62 62 62 62 63 63 63 62 62 62 61 61 60 60 60 59 59 59 59 58 58 57 55 55 55 53 52 52 52 52 52 52 53 53 53 53 53 52 51 49 49 50 52 52 51 50 50 50 49 46 44
53 53 53 53 53 53 54 55 56 56 58 59 59 59 59 58 58 58 59 60 62 64 65 65 65 65 64 63 62 62 63 63 63 63 62 62 62 62 62 63 63 64 64 63 63 63 62 61 61 61 61 60 60 61 61 60 60 59 58 58 57 56 55 55 55 55 55 55 55 55 56 56 55 55 54 54 55 57 58 59 58 57 56 54 50 48
54 54 54 54 54 54 54 55 56 57 57 57 56 56 55 54 53 53 53 54 56 57 59 60 61 61 61 61 61 61 61 61 61 62 61 62 62 62 63 63 64 64 64 64 64 64 64 63 63 62 63 63 63 63 64 63 63 63 62 61 60 59 59 58 58 58 57 57 56 57 57 58 58 58 57 58 59 61 63 65 65 64 64 62 59 59
55 55 55 55 55 55 54 54 56 57 57 56 56 56 56 54 53 53 53 53 53 54 54 55 56 56 56 56 56 57 57 58 59 59 60 60 61 62 63 64 65 65 66 65 65 64 64 64 64 65 65 65 66 66 66 66 65 66 66 66 64 62 62 61 60 59 58 58 59 59 59 59 60 60 61 61 62 63 64 67 69 69 69 68 68 68
57 57 57 57 57 57 56 56 57 57 57 57 57 57 56 55 55 55 56 56 55 54 54 54 53 53 52 52 53 53 54 55 56 57 58 59 59 61 62 63 65 65 66 66 65 64 63 62 64 65 65 65 66 66 66 66 66 67 68 68 67 65 63 61 60 59 58 58 59 60 60 60 60 61 63 63 63 64 65 67 70 72 73 73 73 74
57 58 58 58 58 59 58 58 59 59 58 58 57 56 56 56 57 58 59 59 58 57 57 56 54 53 53 52 53 53 53 54 55 56 56 57 58 59 61 62 63 64 65 65 64 63 61 60 60 61 62 63 63 64 65 65 65 66 67 67 66 64 62 60 58 58 58 58 59 60 60 60 60 60 62 63 65 65 66 67 69 72 75 77 78 78
59 59 60 60 60 60 60 61 62 61 59 57 57 58 58 59 59 60 61 61 61 60 59 58 58 57 56 56 56 56 56 56 56 56 56 57 58 58 59 60 61 61 62 62 62 61 59 58 57 57 59 60 60 60 61 63 63 63 64 65 64 63 62 60 59 57 57 57 58 58 58 58 59 60 61 63 65 66 68 69 70 71 73 76 77 78
61 62 62 63 63 62 63 64 64 63 60 59 60 61 62 62 63 63 64 64 62 61 61 61 61 61 61 60 60 60 60 59 59 58 58 58 59 59 59 60 60 60 60 60 60 59 58 57 56 56 58 59 59 58 59 61 61 60 61 62 62 61 61 62 61 60 59 58 56 55 55 56 58 60 61 62 65 67 68 70 72 73 73 75 76 77
62 63 65 66 65 64 65 66 66 65 63 62 63 64 64 65 66 67 67 66 64 63 63 64 65 65 65 65 65 64 64 63 62 62 62 62 61 61 61 61 61 61 61 61 61 60 59 58 57 57 59 60 60 60 60 61 62 61 61 60 60 60 61 62 62 62 61 60 58 55 55 56 58 60 61 62 64 66 68 70 72 73 73 74 75 75
64 65 66 67 66 66 67 68 68 67 65 64 65 66 67 68 69 70 69 67 66 66 67 67 68 69 69 69 69 68 68 67 66 65 65 65 65 64 64 64 64 64 64 64 64 63 62 62 62 61 62 63 63 64 63 64 64 64 64 63 62 61 62 63 64 63 62 61 60 58 57 58 59 60 61 62 63 65 68 70 72 72 72 73 73 74
67 68 68 68 68 68 69 69 69 68 66 66 67 69 70 72 73 72 70 69 69 70 71 71 71 72 72 72 72 72 72 71 69 68 68 68 68 68 67 67 68 68 68 68 68 67 67 67 67 66 67 67 67 68 67 67 67 68 68 67 66 65 66 67 67 66 65 64 64 62 60 60 61 61 61 62 64 65 67 69 71 71 71 71 71 71
69 70 70 70 70 70 70 70 70 69 68 68 70 71 73 75 75 73 72 72 73 74 74 74 74 75 75 75 75 75 75 74 73 72 72 72 73 73 72 72 72 72 72 71 71 71 71 71 71 70 71 71 71 71 71 71 71 71 71 71 70 70 70 71 70 69 69 69 67 65 64 64 64 64 63 64 66 67 68 69 70 70 70 70 70 70
70 71 72 72 72 72 72 72 71 70 69 70 71 72 74 76 76 75 74 75 75 76 77 77 77 77 77 77 77 77 77 77 77 77 77 77 77 77 77 77 77 76 76 75 75 74 74 73 74 74 74 75 76 76 75 75 74 74 74 74 74 74 74 74 73 72 73 72 71 70 68 68 68 67 67 67 68 70 71 71 71 71 71 71 71 71
70 70 71 73 73 73 74 74 73 72 71 71 72 73 74 75 76 76 76 76 76 77 78 79 79 79 79 79 79 79 80 80 80 80 80 80 81 81 81 81 80 80 79 79 78 78 77 76 76 77 77 78 79 80 80 80 78 78 78 78 78 78 78 78 77 77 76 76 75 74 73 72 72 71 70 70 71 72 74 75 75 74 74 73 73 74
69 70 71 72 73 73 74 74 74 74 73 73 73 74 74 74 75 76 76 76 76 76 77 78 79 79 79 80 81 81 82 82 83 83 82 82 82 83 83 83 83 83 82 82 82 82 81 80 79 79 80 81 82 83 84 84 83 82 81 82 82 82 82 82 81 81 80 80 79 78 77 76 76 74 73 73 73 74 76 77 78 78 78 77 77 77
69 69 70 71 72 72 73 74 74 75 74 74 74 75 75 75 75 76 76 76 76 77 77 79 79 80 81 81 81 82 83 83 84 84 84 84 84 84 84 85 85 85 85 85 85 84 84 83 82 82 82 82 83 85 86 87 86 86 85 86 86 86 85 85 84 84 83 83 83 82 81 79 79 78 78 77 76 75 76 78 79 80 80 80 80 80
69 69 70 71 72 72 73 73 74 74 74 74 74 75 75 76 77 77 77 78 78 78 79 79 80 81 81 81 82 82 83 84 84 85 85 85 86 86 86 86 86 87 87 87 87 87 87 87 86 85 84 83 84 85 86 86 87 87 87 88 88 88 88 87 87 87 86 85 85 84 83 82 81 81 81 80 79 78 78 78 80 80 81 81 82 82
70 70 71 72 72 72 72 73 73 74 74 74 74 74 74 75 76 77 78 79 79 80 80 80 80 80 81 81 82 83 83 84 85 85 86 86 87 87 87 87 87 87 88 88 88 88 89 89 89 88 86 85 85 85 84 84 85 86 86 87 88 88 88 88 88 88 88 88 87 86 85 83 82 81 82 81 80 79 78 78 79 80 80 81 81 82
68 68 69 70 71 71 72 72 72 73 73 73 74 74 74 74 74 74 75 76 77 79 80 80 80 81 81 81 81 82 83 84 84 84 85 85 86 86 86 86 86 87 87 88 89 89 89 88 88 88 87 86 86 86 84 83 83 83 83 84 85 85 85 85 85 86 86 87 87 86 85 85 83 82 82 81 80 78 77 77 77 77 78 79 80 81
63 64 65 66 67 68 68 69 69 70 71 72 73 74 73 73 72 72 72 72 73 75 76 77 77 78 78 78 78 79 80 81 81 81 81 82 83 83 83 83 84 85 85 86 86 86 85 85 84 84 83 83 83 83 83 82 82 81 80 79 79 78 78 78 80 81 82 83 84 84 84 84 83 82 81 80 78 77 77 78 77 76 75 76 78 79
56 57 58 59 60 61 62 63 64 66 67 68 69 70 70 70 70 69 69 69 69 70 71 71 72 72 73 73 73 74 75 75 76 75 75 76 77 77 78 78 78 79 79 79 79 79 78 78 77 76 76 76 77 77 77 77 78 78 77 75 73 70 69 69 71 73 74 76 78 79 79 79 79 79 78 77 75 75 75 76 77 77 75 75 75 76
Wind_Direction
253 253 253 254 255 255 256 256 257 257 256 255 255 255 255 256 257 258 258 259 259 259 259 260 260 260 260 260 259 258 259 261 263 265 267 269 271 272 272 271 272 274 274 273 272 271 270 269 267 266 264 263 263 262 260 258 258 258 260 262 264 265 264 263 263 264 265 266 267 268 268 267 267 267 268 269 270 272 274 276 278 279 281 283 285 286
252 253 253 254 254 254 255 255 255 254 254 253 254 254 255 255 255 255 256 256 256 256 257 258 259 258 258 259 260 259 260 261 263 264 265 267 268 267 266 267 270 270 270 270 270 269 268 267 267 266 264 262 260 260 259 258 257 256 257 260 263 265 265 264 264 265 265 265 266 266 265 266 266 267 268 269 270 272 275 277 279 280 282 283 284 285
252 252 253 253 253 253 254 253 253 252 252 252 253 253 253 253 252 252 253 254 254 256 257 257 257 257 257 258 259 260 260 260 261 263 264 265 264 264 265 267 268 267 267 268 268 267 265 264 264 264 263 262 260 260 260 259 257 255 256 258 260 264 267 268 268 268 267 266 265 265 266 267 268 270 271 272 273 275 277 278 280 281 282 282 283 283
252 252 252 252 252 252 251 251 250 251 251 252 252 251 251 251 250 250 251 253 254 255 256 256 257 256 255 255 257 258 259 260 261 263 264 264 262 263 266 266 266 266 265 266 266 265 262 261 261 261 261 262 262 261 260 258 256 255 256 256 258 260 264 267 268 268 267 266 266 266 267 269 271 272 273 274 275 276 277 278 279 280 281 280 279 278
251 251 250 250 249 249 249 249 248 249 250 250 250 249 249 249 249 250 251 253 254 255 256 257 257 256 255 254 255 257 259 261 262 263 263 262 262 263 263 263 263 264 264 265 265 264 262 260 258 258 260 261 261 260 258 257 255 254 255 255 255 257 260 263 265 266 266 266 266 266 267 269 270 272 273 274 275 276 277 278 278 278 277 276 274 273
250 249 249 248 248 248 248 247 247 248 248 249 249 249 249 249 250 251 251 252 253 255 256 257 258 258 257 257 257 258 260 262 263 263 262 262 262 261 260 260 262 263 264 265 264 263 262 259 257 258 259 259 258 257 257 256 255 254 254 254 254 255 256 259 262 264 265 265 266 266 266 268 269 271 272 273 275 276 277 278 276 274 272 270 269 270
249 248 248 247 247 247 247 247 247 247 248 250 251 250 250 250 251 252 253 253 253 255 256 257 257 258 258 258 259 260 262 262 262 262 261 261 261 261 260 260 260 262 263 265 265 263 260 259 259 259 257 256 256 256 256 256 256 256 256 256 256 256 256 258 261 262 264 265 266 266 267 268 269 270 271 273 276 277 277 275 273 270 268 267 268 269
248 248 247 247 247 247 247 247 247 248 249 251 252 251 250 251 252 254 254 254 254 254 255 256 256 258 259 259 260 261 261 260 260 259 259 259 260 261 262 261 260 261 261 263 263 263 262 261 261 259 257 256 255 255 256 257 257 257 258 258 258 258 257 258 260 262 263 265 266 267 268 269 270 271 272 274 275 276 275 272 269 267 266 266 268 273
248 247 248 248 248 249 249 249 249 250 250 251 252 254 254 254 254 254 254 253 253 254 254 255 257 258 259 260 260 259 257 257 257 258 258 258 259 260 260 259 258 259 259 260 261 261 263 265 265 264 262 259 257 256 256 256 257 257 257 258 259 259 258 258 260 262 264 265 267 268 269 270 270 270 272 272 273 272 271 269 266 265 264 266 270 276
246 246 247 249 249 250 250 250 250 251 252 253 254 255 254 253 253 252 252 252 253 253 254 255 256 257 259 260 260 258 256 256 256 257 257 257 257 256 255 256 256 256 256 257 258 260 263 266 267 267 266 264 262 259 257 256 256 256 256 257 258 259 260 260 261 263 266 267 268 269 269 269 268 268 269 269 269 268 267 266 263 261 260 263 270 274
246 246 247 248 249 250 251 251 251 251 253 253 254 254 253 251 251 252 252 253 253 253 254 254 254 256 258 259 260 259 256 255 255 255 256 255 255 254 253 253 254 254 255 255 256 259 262 265 266 267 266 266 265 263 261 259 257 256 256 257 258 260 262 264 265 266 267 268 268 269 268 268 268 268 268 268 267 266 265 264 261 259 258 260 266 272
248 248 247 247 249 250 252 253 252 251 251 252 252 252 253 252 251 252 253 253 253 253 254 254 254 254 256 258 261 260 257 255 253 253 254 254 255 255 254 253 254 253 254 254 257 259 261 262 264 266 266 266 265 264 263 262 261 259 258 259 260 262 263 264 265 266 267 267 267 268 269 270 271 271 270 268 267 266 264 263 262 259 257 258 261 269
248 248 248 248 249 251 252 251 250 250 251 252 252 252 253 253 252 252 252 252 252 252 252 253 253 253 254 256 260 262 259 256 255 254 254 255 255 255 254 253 253 252 252 254 256 258 259 260 262 264 265 266 266 266 266 265 265 263 261 260 260 261 262 263 264 266 268 269 269 269 270 272 273 274 273 271 269 267 265 264 263 262 260 258 259 264
248 248 248 248 249 250 251 251 251 251 252 253 252 252 253 254 253 253 252 251 251 251 251 252 254 254 254 255 259 263 262 258 256 256 256 256 255 254 253 252 252 252 252 253 255 258 259 260 261 262 264 266 267 267 267 268 267 267 265 263 261 261 261 262 264 268 271 273 274 272 270 271 273 274 274 274 272 269 267 265 263 263 263 263 262 262
247 247 246 247 248 248 250 251 252 253 253 252 252 252 253 254 254 254 253 252 252 252 252 253 254 254 255 255 257 262 263 260 256 256 255 255 254 254 252 251 251 251 253 256 258 260 261 261 261 262 263 265 267 267 269 270 270 270 270 269 266 264 263 265 267 272 276 277 277 276 274 273 274 274 273 273 273 270 267 265 263 262 263 264 265 263
247 247 246 246 247 247 249 251 252 251 251 251 252 252 253 253 254 255 255 256 256 255 253 253 253 253 253 254 254 259 264 264 260 257 254 253 252 252 252 251 251 253 256 259 260 260 262 263 263 264 266 268 269 270 272 273 274 273 273 272 271 269 269 270 272 273 272 271 272 274 273 273 274 274 273 272 271 269 265 264 264 263 262 262 263 263
247 249 248 247 247 248 249 250 250 249 249 251 252 252 252 253 254 255 257 258 259 259 257 255 255 254 254 255 256 258 262 263 260 257 254 253 251 251 251 251 251 253 255 255 254 256 259 261 263 265 268 271 272 272 273 274 274 274 273 272 271 271 273 276 278 274 268 268 271 271 268 266 267 268 269 270 269 267 264 263 264 263 262 261 261 261
247 249 249 248 248 247 248 249 248 248 249 250 250 251 252 253 255 256 258 260 261 261 260 258 257 257 257 257 256 255 258 260 259 257 255 254 253 252 252 253 253 254 254 253 255 258 260 261 263 265 268 271 272 273 274 274 274 273 273 272 271 271 273 276 273 266 264 268 272 272 269 264 262 263 264 266 266 265 264 264 265 266 265 264 263 263
247 249 251 251 250 248 249 251 251 249 250 251 251 251 253 254 255 257 258 259 259 260 260 259 259 259 259 259 257 255 255 257 259 259 258 256 255 254 255 256 256 256 256 257 258 260 262 264 266 267 268 269 270 272 272 273 273 273 272 272 270 269 267 263 256 253 257 264 269 272 270 264 262 263 265 265 265 264 264 265 267 268 269 268 267 267
248 250 251 252 253 251 250 252 253 251 250 252 252 252 253 255 255 255 256 256 257 258 259 260 261 261 260 260 259 256 255 256 258 259 259 258 258 257 256 257 258 259 259 260 260 262 264 266 267 268 268 268 268 269 270 270 271 270 270 268 266 264 259 252 251 252 254 259 262 265 265 263 260 259 262 264 265 266 267 268 269 271 271 271 270 270
247 250 251 252 252 253 252 253 254 253 251 252 254 253 253 255 255 255 256 257 258 259 260 261 261 261 260 260 260 259 258 258 259 260 260 261 260 259 259 258 259 260 261 262 263 264 265 266 267 267 268 268 268 268 268 268 268 268 267 265 262 259 253 246 245 247 245 246 248 249 254 257 256 256 258 261 263 266 267 268 270 271 272 272 271 270
246 248 250 251 251 252 252 252 254 254 253 252 254 254 253 255 256 257 257 257 258 259 260 260 261 261 262 262 262 263 262 261 261 261 261 261 261 261 260 260 260 261 262 263 264 264 265 265 266 267 268 269 269 269 268 268 267 267 266 264 260 257 251 242 238 239 239 241 244 247 250 254 256 257 258 260 262 264 265 265 266 268 269 271 271 271
246 248 250 251 251 251 252 252 254 255 255 254 254 255 255 255 257 258 258 257 257 259 260 259 259 260 262 263 263 263 263 262 262 262 261 261 262 262 262 262 262 263 264 264 264 265 266 267 267 269 269 269 269 269 269 269 269 268 266 264 262 258 253 245 239 238 239 241 245 249 251 254 257 259 259 260 263 265 265 264 264 266 268 270 271 271
246 249 251 253 253 252 252 253 254 256 258 258 257 257 257 257 256 257 257 257 257 257 259 259 259 260 261 263 263 263 264 263 263 263 263 262 262 262 263 263 263 264 265 265 265 266 267 268 268 268 268 268 269 269 270 270 269 268 267 265 263 261 257 252 246 242 242 242 244 247 249 252 255 258 259 261 264 266 267 267 266 267 268 270 271 271
248 250 252 255 256 255 255 256 256 257 258 258 258 258 258 258 257 256 257 257 256 256 258 259 260 261 262 263 264 264 264 264 264 263 263 263 263 263 262 262 263 263 264 265 266 266 266 267 267 267 267 268 268 269 269 269 269 267 266 264 263 262 260 257 253 249 246 245 245 246 248 250 252 255 257 260 262 264 266 267 268 268 268 269 270 270
247 249 251 254 257 258 257 258 258 258 257 257 256 257 258 258 257 257 256 256 256 256 256 258 259 260 261 262 263 263 263 263 263 263 263 263 263 263 263 262 262 262 262 263 265 266 266 266 266 266 267 267 267 267 267 267 266 264 263 262 261 261 260 259 257 254 251 250 249 249 250 251 253 254 255 256 259 262 265 268 269 269 269 269 268 269
246 247 248 251 255 257 257 256 257 259 259 257 256 255 255 257 257 257 257 257 257 257 257 257 258 259 260 260 261 262 262 262 262 262 263 263 263 263 263 263 263 262 262 262 263 264 265 266 266 266 267 267 266 265 264 263 263 262 261 261 260 259 259 258 257 256 254 253 252 251 251 252 253 254 254 254 257 261 265 268 268 267 267 269 269 268
247 247 248 250 253 256 257 255 254 256 258 259 257 255 253 253 255 257 258 258 259 259 259 259 258 259 259 260 260 261 262 262 262 262 262 262 263 263 263 263 263 263 263 263 263 264 265 266 266 267 266 266 266 265 263 262 261 260 260 259 258 257 257 257 256 255 254 253 252 252 252 252 253 255 256 255 256 258 261 264 265 263 261 263 265 265
249 249 249 251 252 254 256 256 254 255 256 258 258 257 254 252 253 255 257 258 259 260 261 261 260 260 260 260 260 260 261 262 262 262 262 261 261 262 262 263 263 263 263 264 264 264 265 265 266 266 266 265 264 264 263 261 260 259 258 257 256 256 256 255 255 254 254 253 253 252 252 252 253 254 254 251 249 250 252 254 257 257 255 255 255 258
250 249 248 249 251 253 255 256 256 255 255 256 257 258 257 255 254 254 255 257 258 259 260 260 261 260 260 260 259 259 260 260 261 261 262 262 262 262 262 262 263 263 263 263 264 264 264 264 265 265 265 264 264 263 261 261 260 259 258 257 255 255 255 255 254 254 254 254 255 254 254 253 253 253 250 244 242 243 243 244 247 248 248 247 248 252
250 250 249 249 249 251 252 254 255 255 256 256 255 256 257 257 256 255 255 256 257 258 258 259 259 259 259 259 259 259 259 259 259 260 261 262 262 262 263 263 263 263 263 263 263 263 263 263 264 264 264 264 264 264 262 261 260 259 258 258 256 255 255 254 254 254 254 255 256 256 255 254 253 252 249 243 241 243 243 241 241 242 243 244 245 248
250 252 253 252 251 252 253 254 255 256 257 258 258 259 259 259 259 257 256 255 256 256 257 257 257 257 257 257 257 258 258 258 258 259 259 260 260 261 262 262 263 263 263 263 264 264 264 264 264 264 265 265 265 265 264 263 262 260 259 259 258 256 255 254 254 254 254 254 255 256 257 257 255 254 252 247 243 244 245 244 242 241 241 242 241 242
251 252 253 254 254 255 256 257 258 259 261 262 264 265 265 264 264 262 260 258 257 256 257 257 257 256 256 256 256 256 257 257 258 259 259 260 260 261 261 262 262 263 263 263 264 265 265 266 266 266 266 265 265 265 265 265 264 263 262 260 259 258 256 255 254 253 254 254 255 255 256 258 258 257 255 252 248 246 245 246 246 244 243 242 240 240
250 251 252 253 254 255 256 257 258 260 262 264 265 266 267 268 268 268 267 264 261 259 258 258 257 257 256 256 256 256 256 257 257 258 258 259 259 260 261 262 262 263 263 263 263 263 263 264 265 265 265 265 265 265 265 265 265 265 264 263 261 259 257 256 255 255 254 255 255 255 255 256 258 258 257 255 252 250 247 246 247 247 246 245 244 243
251 252 253 254 254 255 256 256 257 258 260 261 262 264 266 268 269 269 269 268 266 264 262 261 260 259 259 258 258 257 257 257 257 258 258 258 258 258 259 259 260 261 262 262 262 262 261 261 261 262 262 262 263 263 264 264 264 264 264 264 264 263 261 260 259 259 258 257 257 257 257 257 257 258 258 256 255 253 251 248 246 246 246 247 247 247
252 253 255 256 256 256 257 257 257 257 258 259 261 263 265 265 265 266 266 266 267 267 266 266 265 264 263 262 261 260 259 258 257 257 257 257 257 257 257 258 258 259 260 260 261 262 262 261 261 261 261 261 261 262 262 263 264 264 265 266 267 267 267 265 263 261 260 260 259 259 259 259 258 257 257 257 256 254 253 251 248 246 246 247 249 250
249 250 252 253 254 255 256 256 257 257 258 259 260 261 261 261 261 262 263 264 265 266 267 268 268 267 266 265 264 263 262 261 259 258 258 257 257 257 257 257 258 259 260 260 261 262 262 262 262 262 263 262 262 261 261 262 263 264 265 267 268 268 269 268 266 263 261 260 259 259 259 259 258 257 256 255 255 254 253 253 252 250 249 249 250 251
247 248 249 250 251 252 254 255 256 257 258 258 258 259 259 260 260 261 261 262 263 265 266 267 267 267 267 266 265 265 264 263 263 262 262 261 260 260 260 260 260 260 260 261 262 262 263 263 263 263 263 264 264 264 263 263 263 263 263 264 266 267 267 267 267 265 263 261 259 258 257 257 256 256 255 253 253 253 253 253 253 253 253 253 253 253
248 248 249 249 250 251 252 254 255 256 257 258 259 259 260 260 261 261 261 262 263 264 265 265 266 266 266 265 265 265 265 265 265 265 265 265 264 264 264 264 263 263 263 263 263 263 263 263 263 262 262 263 263 263 263 264 264 263 262 262 262 262 263 263 263 262 262 262 261 259 257 256 254 254 253 252 251 251 252 252 253 254 255 255 255 255
251 250 250 250 251 251 251 252 254 255 256 257 258 259 260 261 261 262 262 263 264 264 264 264 265 265 266 266 266 266 265 265 265 266 266 266 266 266 266 266 266 266 266 265 265 264 264 263 262 261 260 260 261 261 260 261 261 262 262 262 261 261 261 261 260 260 260 260 260 259 257 256 255 254 253 252 251 251 251 252 253 254 254 254 254 255
253 253 253 252 252 252 252 252 253 253 254 254 255 256 258 259 259 261 263 264 264 264 265 265 265 265 265 266 266 267 267 267 267 267 267 266 266 266 265 265 265 265 265 265 265 265 264 264 263 262 261 261 261 261 261 261 261 262 262 262 262 261 261 261 261 261 261 259 258 257 256 256 255 255 254 254 253 252 252 252 253 253 253 254 254 254
253 254 255 255 255 255 254 254 254 254 253 253 254 254 255 257 258 259 260 261 261 262 263 264 264 265 266 266 267 268 268 269 268 268 267 267 266 266 265 264 264 264 264 264 264 264 265 265 266 265 265 264 264 263 263 263 263 263 263 263 262 262 261 262 262 262 262 261 261 259 258 256 256 255 255 255 255 254 253 253 253 253 253 253 253 253
253 254 255 256 256 256 256 256 256 256 255 254 254 254 255 256 257 258 258 258 259 260 261 262 263 264 265 266 266 267 268 268 268 268 268 267 267 267 267 266 266 265 265 265 265 265 265 265 266 267 267 267 267 266 265 264 264 264 264 264 263 263 263 263 262 262 262 262 262 261 260 258 257 256 255 255 256 256 256 255 254 254 254 254 254 254
252 253 253 254 255 256 257 257 257 257 257 256 256 256 256 257 258 259 259 259 259 260 261 262 263 264 264 265 266 266 267 267 267 267 267 268 268 268 268 268 268 268 267 267 267 266 266 265 265 265 266 267 267 267 267 266 265 265 264 264 264 264 264 264 263 263 263 262 262 261 260 260 258 257 255 255 255 257 258 258 257 256 256 255 255 255
254 253 254 254 255 255 256 257 258 258 258 258 258 258 258 258 259 260 260 261 261 261 262 263 263 264 265 265 265 265 266 266 266 267 267 267 268 268 269 269 269 269 269 268 268 267 267 266 265 265 265 265 266 266 267 267 267 266 266 265 265 265 264 264 264 264 263 263 263 262 261 261 260 259 258 256 254 255 256 257 259 259 258 258 257 257
256 256 256 256 256 256 257 257 258 258 258 258 259 260 260 261 261 261 262 262 262 262 262 262 263 263 263 264 264 265 266 266 267 267 268 268 268 269 269 269 270 270 270 270 270 269 269 268 267 265 264 264 264 264 265 266 266 266 266 266 266 266 266 265 265 265 264 264 264 263 263 262 261 261 260 259 257 256 255 255 257 258 259 259 259 259
258 258 258 258 258 258 259 259 259 259 259 259 259 259 259 260 261 262 262 262 262 262 262 262 262 263 264 264 265 265 266 267 267 268 268 268 269 269 269 269 270 270 270 271 271 271 271 270 269 268 267 265 264 263 263 263 264 264 264 264 265 265 265 265 265 265 265 265 264 264 263 263 262 262 261 260 259 258 257 256 256 256 257 258 259 260
258 259 259 259 260 260 260 261 261 261 262 262 261 261 260 260 260 260 261 262 263 263 263 263 263 264 264 264 265 265 266 266 267 267 268 268 269 269 269 269 270 270 270 270 270 270 270 270 270 270 269 269 268 267 265 264 264 263 263 263 263 263 263 264 264 264 265 265 265 265 264 264 263 263 262 262 261 260 258 257 257 257 257 257 257 258
258 259 259 259 260 261 261 262 263 263 264 264 265 265 264 264 263 262 261 261 262 263 263 264 264 264 265 265 265 265 266 266 267 267 267 268 268 268 269 269 270 270 270 270 269 269 269 269 269 270 270 270 270 270 269 268 267 266 264 263 263 263 263 263 263 263 263 264 264 265 265 264 264 263 263 263 263 262 262 260 259 258 257 257 257 257
258 259 259 259 260 261 262 263 263 264 264 265 265 266 266 266 265 265 265 264 264 264 264 264 264 265 265 265 266 266 266 266 267 267 267 268 268 269 269 269 269 269 268 268 269 269 269 269 269 269 269 269 269 270 270 270 270 269 267 266 264 263 263 263 263 263 263 263 263 264 264 264 264 264 264 263 263 263 263 263 262 260 258 257 257 257
259 260 261 261 262 262 263 263 263 263 263 263 264 264 265 266 267 267 267 267 266 266 266 266 266 266 266 266 266 266 267 267 267 268 268 268 269 269 269 269 269 269 269 269 270 270 270 269 269 268 268 268 268 268 268 268 268 268 268 268 267 265 263 262 262 262 262 262 262 262 262 262 262 263 263 263 262 262 261 262 262 262 260 259 257 257
Height
10589 10590 10590 10592 10593 10595 10595 10596 10599 10602 10601 10601 10602 10604 10606 10608 10609 10608 10608 10610 10611 10611 10611 10614 10617 10621 10622 10620 10621 10621 10622 10622 10623 10623 10623 10624 10625 10625 10624 10621 10620 10621 10622 10623 10624 10623 10622 10620 10619 10620 10621 10620 10620 10619 10619 10619 10619 10619 10619 10619 10619 10619 10619 10621 10622 10624 10626 10628 10631 10633 10634 10635 10636 10637 10638 10638 10638 10638 10638 10638 10638 10639 10640 10640 10641 10640
10582 10583 10585 10586 10588 10589 10589 10592 10594 10594 10593 10594 10596 10598 10601 10603 10604 10603 10602 10603 10605 10605 10606 10609 10611 10614 10616 10614 10612 10614 10617 10618 10618 10619 10620 10620 10621 10620 10618 10617 10617 10617 10617 10617 10619 10619 10618 10616 10615 10616 10617 10617 10617 10616 10616 10616 10617 10617 10616 10616 10616 10616 10616 10617 10619 10621 10623 10625 10628 10629 10631 10631 10632 10633 10633 10634 10634 10634 10634 10634 10634 10634 10635 10636 10636 10636
10577 10578 10580 10581 10582 10583 10584 10586 10587 10586 10586 10588 10590 10593 10596 10597 10598 10598 10597 10598 10600 10600 10601 10604 10606 10608 10611 10608 10606 10607 10610 10613 10614 10614 10616 10617 10616 10615 10614 10613 10612 10613 10612 10612 10613 10614 10613 10612 10611 10612 10613 10613 10613 10613 10613 10614 10614 10614 10614 10614 10614 10613 10613 10613 10615 10617 10619 10622 10625 10626 10627 10627 10627 10628 10628 10629 10630 10630 10630 10629 10628 10629 10629 10630 10631 10632
10572 10574 10575 10576 10577 10578 10579 10580 10580 10580 10581 10583 10585 10588 10590 10591 10592 10593 10592 10594 10596 10596 10596 10598 10600 10602 10605 10603 10601 10602 10604 10608 10609 10610 10612 10612 10611 10611 10610 10609 10607 10607 10607 10607 10608 10608 10608 10608 10607 10607 10608 10610 10610 10610 10610 10610 10611 10611 10611 10612 10612 10611 10610 10610 10611 10612 10615 10617 10620 10622 10623 10623 10623 10623 10623 10624 10624 10625 10625 10625 10624 10623 10624 10624 10625 10627
10567 10569 10570 10571 10571 10572 10573 10574 10575 10575 10576 10578 10579 10582 10584 10586 10587 10588 10589 10591 10592 10591 10591 10593 10594 10594 10596 10597 10596 10598 10600 10603 10605 10607 10607 10606 10606 10607 10606 10604 10603 10602 10602 10602 10602 10601 10602 10602 10602 10603 10605 10607 10607 10607 10607 10607 10608 10608 10609 10609 10609 10608 10608 10608 10607 10608 10610 10613 10615 10618 10619 10619 10619 10618 10618 10619 10619 10620 10620 10620 10620 10620 10620 10620 10620 10621
10562 10564 10566 10566 10566 10567 10568 10569 10570 10570 10571 10572 10573 10576 10580 10582 10582 10583 10585 10587 10587 10586 10586 10587 10587 10585 10588 10589 10590 10594 10597 10599 10601 10602 10603 10602 10601 10602 10601 10601 10599 10597 10596 10596 10596 10595 10595 10595 10596 10599 10602 10603 10604 10603 10603 10604 10605 10606 10606 10605 10606 10606 10607 10606 10605 10605 10606 10608 10610 10613 10614 10615 10614 10614 10614 10615 10616 10617 10616 10616 10616 10616 10616 10616 10616 10616
10557 10559 10560 10561 10561 10562 10562 10564 10565 10565 10567 10567 10567 10571 10575 10577 10577 10577 10580 10581 10581 10581 10581 10582 10580 10579 10580 10581 10584 10590 10593 10595 10597 10598 10598 10597 10596 10596 10596 10596 10594 10592 10591 10591 10589 10588 10588 10589 10592 10595 10597 10599 10599 10599 10599 10601 10602 10602 10602 10602 10602 10603 10604 10604 10602 10602 10602 10603 10605 10607 10609 10610 10609 10609 10610 10611 10613 10614 10613 10612 10612 10611 10611 10612 10612 10612
10552 10554 10554 10555 10556 10556 10557 10558 10559 10561 10563 10562 10561 10565 10570 10572 10572 10573 10574 10575 10575 10576 10576 10576 10575 10574 10574 10575 10579 10586 10589 10590 10592 10592 10593 10592 10591 10591 10591 10591 10589 10587 10587 10586 10583 10581 10580 10584 10588 10590 10592 10594 10595 10595 10595 10596 10598 10599 10599 10598 10599 10600 10600 10600 10598 10598 10598 10598 10600 10601 10603 10604 10604 10604 10606 10608 10609 10609 10609 10609 10608 10607 10607 10607 10607 10608
10548 10548 10548 10550 10551 10551 10552 10553 10555 10557 10557 10556 10557 10560 10565 10567 10567 10567 10567 10568 10569 10570 10571 10571 10571 10569 10568 10569 10573 10581 10585 10586 10587 10587 10588 10588 10587 10587 10586 10585 10584 10583 10583 10582 10578 10576 10576 10579 10582 10584 10586 10588 10589 10590 10591 10592 10593 10595 10595 10594 10595 10595 10595 10595 10593 10593 10593 10593 10594 10596 10597 10598 10599 10600 10602 10604 10605 10605 10604 10604 10604 10604 10603 10603 10603 10604
10542 10543 10544 10546 10546 10545 10545 10548 10551 10552 10550 10551 10554 10556 10558 10561 10561 10560 10561 10562 10564 10565 10565 10567 10567 10564 10564 10563 10565 10573 10579 10581 10582 10582 10583 10583 10583 10583 10581 10580 10579 10579 10579 10577 10574 10573 10575 10576 10576 10578 10580 10582 10584 10585 10586 10587 10588 10590 10590 10590 10590 10589 10589 10589 10589 10589 10588 10588 10589 10590 10591 10592 10593 10596 10598 10599 10600 10600 10599 10599 10600 10600 10600 10599 10599 10600
10535 10538 10541 10541 10540 10539 10540 10543 10547 10547 10545 10547 10549 10549 10550 10554 10554 10554 10556 10558 10559 10560 10560 10562 10563 10561 10560 10559 10558 10564 10573 10577 10578 10577 10577 10577 10577 10577 10577 10575 10574 10575 10574 10573 10571 10571 10573 10573 10572 10573 10575 10577 10578 10579 10580 10582 10584 10585 10586 10586 10585 10584 10584 10584 10585 10584 10583 10582 10582 10583 10583 10584 10587 10590 10592 10594 10595 10595 10595 10595 10596 10596 10596 10596 10596 10596
10529 10534 10537 10536 10534 10534 10535 10538 10541 10541 10540 10541 10543 10542 10544 10547 10549 10550 10552 10553 10554 10555 10556 10557 10558 10558 10557 10555 10552 10556 10566 10572 10573 10573 10572 10572 10571 10571 10572 10571 10571 10571 10571 10569 10568 10569 10571 10570 10569 10570 10571 10572 10573 10574 10575 10577 10579 10581 10582 10582 10581 10581 10581 10581 10580 10580 10578 10577 10576 10578 10578 10578 10580 10583 10585 10587 10589 10590 10590 10590 10591 10591 10591 10592 10592 10592
10525 10528 10530 10531 10530 10530 10530 10532 10534 10534 10534 10536 10537 10537 10538 10541 10543 10545 10547 10548 10549 10550 10551 10551 10552 10552 10552 10551 10548 10549 10559 10566 10568 10568 10567 10567 10566 10566 10567 10567 10567 10568 10567 10566 10565 10566 10567 10567 10567 10567 10567 10568 10568 10569 10570 10572 10574 10577 10578 10579 10579 10579 10578 10577 10577 10577 10576 10574 10573 10575 10575 10574 10574 10576 10577 10579 10582 10583 10584 10584 10585 10585 10586 10587 10587 10588
10520 10522 10524 10525 10526 10525 10524 10525 10527 10529 10530 10531 10531 10532 10533 10535 10537 10539 10541 10542 10543 10544 10546 10546 10547 10546 10546 10548 10546 10544 10551 10560 10563 10562 10562 10562 10561 10561 10562 10563 10563 10563 10563 10562 10562 10563 10563 10564 10564 10564 10564 10564 10564 10564 10565 10567 10569 10571 10573 10575 10576 10576 10576 10576 10576 10576 10575 10572 10571 10571 10572 10571 10570 10570 10571 10573 10576 10577 10577 10578 10579 10579 10580 10581 10582 10583
10515 10517 10519 10520 10520 10520 10519 10519 10522 10524 10525 10525 10526 10528 10529 10530 10531 10532 10534 10536 10538 10539 10541 10541 10541 10540 10541 10543 10544 10542 10544 10553 10557 10557 10557 10557 10556 10557 10558 10558 10559 10559 10559 10558 10559 10559 10559 10559 10560 10560 10560 10560 10560 10560 10561 10562 10564 10566 10567 10569 10571 10572 10573 10575 10576 10577 10573 10568 10567 10567 10567 10566 10565 10565 10566 10568 10569 10571 10572 10572 10573 10573 10574 10575 10576 10577
10509 10510 10514 10515 10514 10514 10514 10514 10516 10518 10518 10519 10521 10523 10524 10525 10525 10526 10528 10530 10532 10533 10535 10535 10534 10534 10535 10538 10542 10541 10541 10546 10550 10551 10551 10551 10551 10552 10553 10554 10554 10555 10556 10556 10556 10556 10555 10554 10554 10556 10556 10556 10556 10556 10557 10558 10560 10561 10562 10564 10565 10567 10571 10574 10576 10576 10570 10563 10563 10563 10563 10562 10561 10559 10560 10562 10563 10565 10567 10567 10567 10568 10569 10569 10570 10571
10504 10505 10508 10510 10509 10510 10510 10508 10510 10512 10513 10515 10517 10518 10519 10520 10520 10521 10523 10525 10526 10527 10528 10528 10527 10528 10531 10535 10539 10541 10539 10540 10542 10543 10544 10545 10546 10547 10548 10549 10550 10551 10552 10553 10553 10552 10551 10550 10550 10551 10551 10551 10552 10552 10553 10554 10555 10556 10557 10559 10560 10563 10569 10572 10575 10573 10565 10560 10561 10560 10560 10559 10557 10555 10555 10555 10556 10558 10560 10561 10562 10563 10564 10564 10565 10566
10500 10499 10502 10503 10503 10505 10504 10502 10503 10507 10509 10511 10512 10513 10514 10514 10515 10518 10519 10520 10521 10520 10520 10521 10521 10523 10527 10530 10534 10537 10536 10534 10534 10536 10538 10539 10541 10542 10542 10543 10544 10545 10546 10547 10547 10547 10546 10546 10547 10547 10546 10547 10547 10548 10548 10549 10550 10550 10551 10553 10555 10559 10566 10571 10572 10566 10558 10558 10560 10556 10554 10554 10552 10551 10549 10547 10548 10551 10553 10555 10556 10557 10558 10559 10560 10561
10495 10495 10496 10496 10496 10498 10498 10496 10498 10502 10504 10504 10505 10508 10509 10509 10511 10513 10514 10514 10515 10513 10512 10514 10517 10520 10522 10524 10527 10530 10531 10529 10529 10530 10532 10533 10535 10536 10537 10537 10538 10539 10540 10540 10541 10541 10541 10541 10542 10542 10542 10543 10543 10543 10544 10544 10544 10545 10546 10547 10549 10554 10562 10566 10563 10557 10554 10557 10558 10553 10548 10546 10545 10545 10542 10540 10541 10543 10546 10549 10550 10551 10552 10553 10554 10554
10490 10489 10489 10489 10488 10490 10492 10490 10491 10495 10497 10497 10499 10503 10503 10503 10505 10507 10507 10508 10508 10507 10507 10509 10512 10515 10516 10516 10519 10522 10524 10524 10524 10524 10525 10527 10529 10530 10531 10532 10533 10533 10533 10533 10534 10535 10536 10535 10536 10536 10537 10537 10538 10538 10538 10538 10538 10539 10540 10541 10543 10548 10556 10559 10556 10553 10553 10554 10552 10547 10539 10534 10536 10537 10534 10535 10535 10536 10540 10542 10543 10544 10545 10545 10546 10547
10484 10483 10482 10482 10481 10483 10484 10484 10484 10487 10489 10491 10493 10496 10497 10497 10499 10502 10503 10502 10502 10501 10502 10504 10507 10509 10509 10509 10512 10515 10518 10519 10518 10518 10519 10520 10522 10523 10524 10526 10527 10526 10526 10526 10527 10529 10529 10529 10529 10529 10529 10530 10530 10530 10531 10531 10531 10532 10533 10534 10536 10540 10547 10552 10551 10546 10544 10543 10540 10534 10528 10524 10527 10529 10529 10530 10530 10531 10534 10535 10536 10537 10537 10537 10538 10538
10478 10476 10474 10474 10474 10475 10476 10477 10478 10478 10481 10485 10486 10487 10490 10492 10494 10496 10497 10497 10496 10496 10496 10498 10502 10503 10503 10504 10506 10508 10511 10512 10512 10511 10513 10514 10514 10515 10516 10518 10519 10519 10518 10519 10520 10520 10520 10521 10521 10521 10522 10522 10522 10522 10523 10523 10524 10524 10525 10526 10528 10532 10536 10541 10541 10535 10534 10534 10531 10527 10523 10521 10522 10524 10524 10525 10525 10526 10528 10530 10530 10530 10529 10529 10529 10529
10472 10470 10467 10466 10467 10468 10469 10471 10471 10471 10474 10478 10479 10481 10485 10487 10489 10490 10489 10490 10490 10489 10489 10491 10495 10497 10496 10498 10500 10501 10503 10504 10504 10504 10505 10507 10507 10507 10508 10510 10511 10511 10510 10510 10511 10511 10511 10512 10513 10513 10514 10514 10514 10514 10514 10515 10515 10516 10516 10517 10519 10522 10525 10528 10530 10528 10528 10528 10526 10523 10520 10517 10517 10519 10520 10520 10520 10520 10521 10523 10524 10523 10523 10523 10522 10522
10465 10464 10461 10458 10459 10462 10464 10465 10466 10467 10469 10471 10472 10475 10478 10481 10483 10483 10482 10482 10483 10483 10482 10483 10488 10490 10490 10491 10493 10494 10495 10496 10496 10497 10498 10498 10498 10499 10501 10502 10502 10502 10501 10500 10501 10503 10503 10503 10505 10505 10506 10506 10506 10506 10506 10507 10507 10508 10508 10509 10510 10512 10514 10516 10519 10521 10521 10521 10519 10517 10514 10513 10513 10514 10514 10515 10514 10513 10513 10514 10516 10516 10517 10517 10517 10516
10459 10459 10456 10452 10451 10454 10457 10459 10461 10462 10463 10464 10466 10469 10470 10472 10475 10476 10474 10474 10475 10476 10475 10476 10480 10484 10484 10484 10485 10487 10488 10488 10488 10488 10489 10489 10489 10491 10493 10494 10494 10493 10492 10491 10492 10493 10494 10495 10496 10497 10497 10498 10499 10499 10499 10499 10500 10501 10501 10501 10502 10503 10504 10506 10509 10512 10513 10513 10511 10509 10508 10508 10508 10508 10509 10509 10508 10507 10506 10506 10507 10508 10510 10511 10511 10510
10453 10453 10451 10448 10444 10446 10450 10453 10454 10453 10453 10455 10459 10462 10463 10464 10466 10466 10466 10466 10466 10467 10469 10470 10473 10477 10478 10478 10478 10479 10480 10480 10480 10480 10480 10481 10481 10481 10483 10484 10484 10485 10485 10484 10483 10484 10485 10486 10487 10488 10489 10490 10492 10492 10493 10493 10493 10493 10494 10494 10495 10495 10496 10498 10501 10503 10505 10504 10503 10503 10502 10502 10502 10502 10502 10502 10502 10500 10498 10497 10499 10500 10502 10502 10503 10503
10444 10445 10445 10443 10439 10438 10441 10445 10446 10443 10442 10445 10449 10453 10455 10455 10456 10457 10457 10457 10457 10458 10460 10463 10467 10470 10471 10471 10471 10471 10471 10472 10473 10473 10473 10473 10473 10473 10473 10474 10474 10475 10476 10476 10476 10476 10477 10477 10479 10481 10482 10483 10484 10485 10486 10486 10486 10487 10487 10488 10488 10488 10489 10491 10493 10496 10497 10496 10496 10496 10496 10496 10496 10496 10496 10497 10496 10494 10492 10491 10492 10494 10494 10494 10495 10496
10434 10435 10437 10437 10434 10431 10431 10435 10437 10435 10433 10434 10437 10442 10446 10448 10448 10449 10449 10449 10449 10449 10450 10454 10460 10461 10462 10464 10465 10464 10464 10464 10465 10466 10466 10465 10465 10464 10464 10465 10465 10466 10466 10467 10468 10469 10469 10470 10471 10473 10474 10475 10476 10477 10478 10479 10480 10480 10480 10481 10481 10481 10482 10484 10486 10488 10489 10488 10488 10489 10490 10490 10490 10490 10491 10491 10490 10489 10489 10488 10487 10488 10488 10488 10488 10488
10424 10426 10427 10427 10425 10423 10422 10423 10426 10427 10426 10425 10426 10428 10435 10440 10442 10442 10442 10442 10441 10440 10440 10445 10450 10451 10453 10456 10457 10457 10457 10456 10456 10456 10457 10457 10457 10457 10457 10457 10457 10457 10458 10459 10460 10461 10462 10462 10463 10464 10465 10467 10468 10468 10470 10471 10472 10472 10473 10473 10474 10474 10475 10476 10478 10480 10480 10480 10480 10481 10482 10483 10484 10485 10485 10484 10483 10483 10483 10484 10484 10483 10482 10482 10480 10479
10415 10416 10417 10417 10416 10416 10415 10415 10417 10418 10417 10417 10417 10418 10423 10429 10433 10435 10435 10434 10434 10432 10432 10436 10439 10441 10443 10446 10448 10449 10449 10449 10448 10448 10448 10449 10450 10450 10450 10449 10449 10449 10449 10451 10452 10453 10453 10454 10455 10455 10456 10457 10458 10460 10461 10462 10463 10464 10464 10465 10467 10467 10468 10468 10470 10472 10472 10472 10473 10474 10475 10476 10477 10478 10479 10479 10478 10476 10477 10479 10479 10477 10476 10475 10475 10474
10407 10407 10409 10410 10410 10409 10409 10409 10410 10410 10408 10408 10410 10411 10414 10419 10424 10426 10427 10426 10425 10424 10424 10427 10429 10431 10433 10436 10437 10439 10440 10440 10440 10440 10441 10441 10441 10441 10441 10440 10440 10440 10440 10441 10442 10443 10444 10446 10446 10446 10447 10448 10449 10449 10450 10452 10454 10455 10456 10457 10459 10460 10461 10461 10462 10464 10465 10465 10466 10467 10467 10468 10469 10471 10472 10473 10472 10470 10471 10473 10473 10471 10470 10470 10472 10473
10401 10400 10401 10402 10402 10402 10403 10402 10403 10402 10401 10401 10403 10406 10409 10411 10414 10416 10417 10417 10416 10415 10415 10417 10419 10421 10424 10426 10427 10428 10430 10431 10431 10432 10432 10433 10432 10432 10432 10431 10431 10431 10431 10432 10433 10433 10435 10436 10438 10438 10438 10439 10439 10439 10439 10442 10444 10446 10447 10448 10449 10451 10453 10454 10455 10456 10457 10458 10458 10459 10459 10460 10461 10463 10464 10465 10465 10464 10464 10465 10466 10465 10464 10466 10469 10468
10394 10394 10394 10395 10396 10396 10397 10397 10396 10396 10395 10395 10397 10400 10402 10403 10404 10405 10406 10407 10407 10407 10407 10408 10409 10412 10414 10417 10418 10419 10420 10421 10422 10422 10423 10423 10423 10423 10423 10422 10422 10422 10422 10424 10425 10425 10426 10427 10429 10430 10430 10430 10429 10429 10430 10431 10433 10435 10436 10438 10440 10442 10444 10445 10447 10448 10450 10450 10451 10451 10452 10452 10453 10454 10455 10456 10457 10457 10457 10457 10458 10458 10458 10459 10461 10459
10386 10386 10387 10389 10389 10390 10391 10391 10390 10389 10390 10391 10393 10393 10393 10395 10396 10396 10396 10396 10397 10397 10398 10399 10400 10403 10405 10408 10409 10410 10412 10412 10412 10413 10413 10413 10414 10414 10413 10413 10413 10413 10413 10414 10416 10417 10419 10419 10420 10420 10420 10420 10419 10419 10420 10421 10423 10424 10424 10426 10429 10432 10434 10436 10438 10440 10442 10442 10443 10443 10443 10444 10444 10445 10445 10446 10447 10449 10449 10449 10450 10450 10451 10451 10452 10451
10380 10380 10380 10382 10382 10382 10384 10385 10383 10383 10385 10386 10386 10387 10388 10389 10389 10388 10386 10386 10386 10387 10388 10390 10392 10394 10397 10399 10400 10401 10402 10402 10402 10403 10403 10404 10404 10404 10404 10403 10403 10403 10403 10404 10405 10407 10409 10411 10411 10410 10411 10411 10411 10411 10412 10412 10414 10414 10413 10414 10417 10421 10424 10428 10431 10432 10434 10434 10434 10434 10434 10435 10436 10435 10436 10437 10438 10439 10440 10441 10442 10442 10443 10444 10444 10443
10374 10374 10374 10374 10375 10375 10376 10376 10375 10376 10378 10380 10381 10382 10383 10382 10381 10380 10378 10377 10377 10378 10379 10381 10383 10385 10387 10389 10390 10391 10392 10392 10392 10393 10393 10394 10394 10394 10394 10394 10394 10394 10394 10395 10396 10397 10400 10402 10402 10402 10402 10402 10403 10404 10404 10405 10405 10405 10405 10405 10407 10410 10413 10417 10420 10422 10424 10425 10425 10425 10425 10426 10426 10427 10427 10427 10428 10428 10429 10431 10432 10433 10434 10435 10436 10435
10367 10367 10367 10366 10366 10367 10367 10366 10366 10368 10372 10375 10375 10374 10374 10373 10373 10372 10371 10370 10371 10372 10372 10373 10374 10375 10377 10378 10379 10380 10380 10381 10382 10383 10384 10384 10384 10384 10385 10385 10386 10386 10386 10386 10388 10389 10392 10394 10395 10395 10394 10394 10395 10397 10397 10397 10398 10399 10398 10397 10398 10401 10402 10404 10406 10409 10412 10413 10415 10416 10416 10417 10417 10417 10417 10418 10418 10419 10420 10420 10421 10423 10425 10426 10426 10427
10359 10359 10359 10358 10358 10359 10359 10357 10358 10361 10365 10367 10366 10365 10364 10364 10364 10364 10363 10363 10365 10366 10366 10365 10364 10364 10365 10367 10368 10368 10369 10371 10372 10373 10374 10375 10375 10376 10376 10377 10378 10378 10379 10380 10380 10382 10384 10387 10388 10389 10387 10386 10387 10388 10389 10389 10390 10391 10392 10391 10392 10393 10393 10393 10394 10395 10398 10400 10403 10406 10407 10408 10408 10408 10408 10409 10409 10410 10411 10411 10412 10413 10414 10416 10417 10418
10350 10350 10350 10350 10351 10353 10352 10350 10351 10354 10357 10358 10358 10357 10356 10355 10354 10354 10354 10356 10360 10360 10359 10358 10355 10354 10354 10356 10357 10358 10359 10361 10363 10364 10365 10365 10366 10367 10368 10368 10369 10370 10371 10372 10372 10374 10376 10378 10380 10380 10379 10378 10378 10379 10380 10380 10380 10381 10383 10384 10385 10385 10384 10383 10383 10383 10386 10389 10391 10395 10397 10398 10398 10398 10398 10399 10400 10401 10402 10402 10402 10403 10404 10406 10407 10408
10340 10341 10341 10342 10344 10346 10345 10343 10343 10347 10350 10352 10350 10348 10346 10345 10344 10343 10345 10349 10352 10351 10350 10349 10347 10345 10345 10345 10346 10347 10349 10351 10354 10355 10355 10356 10357 10358 10359 10359 10359 10359 10360 10361 10362 10364 10365 10366 10367 10368 10368 10368 10368 10368 10369 10370 10370 10371 10372 10374 10376 10376 10374 10373 10372 10374 10377 10379 10381 10384 10386 10387 10387 10388 10389 10390 10391 10392 10392 10392 10392 10392 10394 10395 10396 10397
10329 10329 10330 10332 10334 10335 10335 10335 10337 10340 10344 10345 10342 10340 10338 10335 10333 10335 10339 10342 10342 10340 10340 10339 10338 10337 10337 10336 10336 10336 10337 10340 10344 10345 10346 10346 10346 10347 10348 10349 10348 10348 10349 10350 10350 10351 10352 10353 10354 10356 10356 10356 10357 10358 10359 10360 10361 10361 10361 10363 10366 10366 10364 10363 10363 10365 10367 10369 10370 10373 10376 10376 10377 10378 10379 10380 10381 10381 10381 10381 10381 10382 10384 10385 10386 10387
10319 10319 10319 10321 10323 10324 10325 10327 10328 10331 10335 10336 10333 10332 10329 10324 10325 10330 10333 10332 10331 10330 10330 10329 10329 10329 10328 10328 10327 10327 10327 10329 10331 10333 10333 10333 10333 10334 10335 10336 10337 10337 10338 10339 10340 10341 10342 10342 10343 10344 10344 10344 10345 10346 10348 10349 10350 10350 10350 10352 10354 10354 10354 10354 10355 10356 10357 10358 10360 10363 10365 10366 10367 10368 10370 10370 10370 10369 10369 10370 10371 10372 10374 10376 10377 10378
10309 10310 10310 10310 10311 10312 10313 10315 10317 10320 10324 10324 10323 10322 10320 10316 10316 10321 10323 10322 10322 10321 10321 10321 10321 10320 10320 10319 10319 10318 10318 10318 10318 10319 10320 10320 10320 10321 10321 10322 10324 10326 10327 10329 10330 10331 10333 10334 10334 10333 10332 10332 10331 10332 10334 10336 10338 10338 10338 10340 10340 10341 10342 10343 10345 10346 10346 10348 10350 10352 10353 10355 10356 10357 10359 10360 10359 10359 10358 10359 10360 10361 10364 10366 10368 10369
10299 10301 10301 10300 10301 10301 10302 10303 10306 10308 10311 10312 10311 10311 10310 10309 10308 10309 10310 10312 10313 10312 10312 10311 10311 10311 10311 10311 10310 10309 10308 10307 10307 10307 10308 10308 10308 10308 10308 10309 10310 10313 10315 10317 10317 10318 10321 10324 10324 10323 10322 10320 10319 10318 10318 10321 10324 10325 10326 10327 10327 10328 10329 10330 10332 10333 10335 10336 10337 10339 10341 10342 10343 10346 10348 10350 10350 10349 10348 10347 10349 10351 10354 10356 10358 10359
10289 10291 10291 10290 10291 10292 10293 10293 10294 10296 10298 10300 10300 10300 10300 10300 10300 10299 10300 10301 10302 10303 10302 10302 10301 10301 10301 10300 10299 10298 10297 10296 10295 10296 10297 10297 10297 10297 10297 10297 10297 10298 10300 10302 10303 10304 10305 10309 10311 10312 10312 10310 10308 10306 10305 10306 10308 10311 10313 10313 10313 10314 10316 10317 10318 10320 10322 10323 10324 10326 10328 10330 10331 10333 10335 10337 10339 10340 10339 10338 10338 10339 10341 10344 10346 10348
10279 10281 10281 10281 10281 10283 10284 10284 10284 10286 10287 10289 10289 10289 10289 10290 10290 10290 10290 10291 10291 10292 10291 10290 10289 10289 10289 10288 10288 10287 10286 10285 10285 10285 10285 10286 10286 10285 10285 10285 10284 10284 10285 10287 10288 10288 10290 10292 10294 10297 10299 10299 10297 10295 10294 10293 10294 10297 10299 10299 10298 10299 10301 10303 10304 10306 10308 10310 10311 10312 10314 10317 10319 10320 10321 10324 10326 10328 10330 10329 10329 10328 10329 10331 10333 10335
10269 10270 10271 10271 10271 10272 10273 10273 10274 10274 10276 10278 10279 10280 10280 10279 10279 10279 10279 10278 10279 10279 10278 10278 10278 10278 10278 10278 10278 10277 10276 10275 10274 10274 10273 10273 10273 10273 10273 10273 10273 10272 10272 10273 10273 10273 10273 10274 10276 10278 10281 10283 10283 10281 10281 10282 10283 10284 10285 10285 10284 10285 10286 10288 10290 10291 10292 10294 10296 10298 10300 10303 10305 10306 10307 10309 10312 10315 10317 10318 10318 10319 10320 10320 10321 10322
10258 10259 10260 10260 10260 10261 10262 10262 10263 10263 10264 10266 10267 10267 10268 10268 10268 10268 10268 10267 10267 10266 10266 10267 10267 10267 10268 10267 10267 10266 10265 10263 10263 10263 10262 10261 10261 10260 10260 10261 10261 10260 10260 10259 10259 10258 10258 10258 10259 10260 10262 10264 10264 10264 10265 10268 10269 10270 10271 10271 10271 10271 10273 10275 10276 10277 10278 10279 10280 10283 10285 10288 10290 10292 10292 10294 10297 10301 10304 10305 10307 10308 10309 10310 10311 10311
10248 10249 10250 10250 10250 10251 10251 10252 10253 10254 10254 10254 10254 10254 10255 10255 10255 10256 10257 10257 10257 10256 10255 10255 10255 10255 10255 10255 10255 10254 10253 10252 10251 10251 10251 10249 10248 10248 10248 10249 10248 10248 10247 10245 10244 10243 10244 10244 10244 10245 10247 10248 10248 10247 10247 10250 10252 10253 10255 10256 10257 10258 10260 10262 10263 10264 10265 10266 10267 10268 10270 10272 10275 10278 10278 10280 10283 10286 10288 10290 10292 10295 10297 10298 10298 10299
10238 10239 10240 10241 10241 10242 10242 10243 10244 10244 10244 10244 10243 10242 10242 10241 10242 10243 10244 10245 10245 10244 10243 10243 10243 10243 10243 10243 10243 10242 10241 10240 10239 10239 10240 10238 10237 10236 10237 10236 10235 10234 10232 10230 10230 10230 10230 10231 10232 10233 10235 10235 10234 10233 10234 10234 10234 10235 10236 10239 10241 10243 10247 10249 10250 10251 10253 10254 10254 10255 10257 10258 10261 10263 10265 10268 10270 10272 10274 10274 10275 10278 10282 10283 10284 10285
10230 10231 10232 10233 10234 10234 10234 10234 10234 10234 10234 10233 10233 10232 10231 10231 10231 10231 10232 10232 10232 10232 10231 10231 10231 10231 10232 10232 10231 10231 10230 10229 10228 10228 10229 10227 10225 10224 10224 10223 10222 10221 10219 10218 10219 10219 10218 10218 10218 10220 10222 10222 10221 10221 10221 10221 10220 10220 10220 10221 10224 10228 10233 10236 10238 10239 10240 10240 10241 10242 10244 10245 10247 10250 10252 10255 10257 10259 10261 10261 10261 10262 10264 10266 10267 10269